• In Russia
  • List of Countries
  • For 7 days
  • Water Temperature
  • Satellite Maps
  • Weather Map
  • Weather Widgets
  • user-avatar
    Login

    Hourly Weather Ilinka

    Today, 24 September, Monday

    Time Temperature Precipitation Wind Pressure Humidity
    00:00 +6°C° 0 mm 2 mps 721 mmHg 77%
    01:00 +6°C° 0 mm 2 mps 721 mmHg 79%
    02:00 +6°C° 0 mm 2 mps 721 mmHg 80%
    03:00 +5°C° 0 mm 2 mps 721 mmHg 82%
    04:00 +5°C° 0 mm 2 mps 721 mmHg 83%
    05:00 +6°C° 0 mm 2 mps 721 mmHg 81%
    06:00 +6°C° 0 mm 2 mps 721 mmHg 78%
    07:00 +7°C° 0 mm 2 mps 721 mmHg 74%
    08:00 +9°C° 0 mm 2 mps 721 mmHg 66%
    09:00 +12°C° 0 mm 2 mps 721 mmHg 58%
    10:00 +15°C° 0 mm 2 mps 721 mmHg 50%
    11:00 +16°C° 0 mm 2 mps 720 mmHg 47%
    12:00 +17°C° 0 mm 2 mps 720 mmHg 45%
    13:00 +19°C° 0 mm 1 mps 720 mmHg 41%
    14:00 +19°C° 0 mm 1 mps 720 mmHg 43%
    15:00 +18°C° 0 mm 1 mps 719 mmHg 45%
    16:00 +18°C° 0 mm 1 mps 719 mmHg 47%
    17:00 +14°C° 0 mm 1 mps 719 mmHg 54%
    18:00 +12°C° 0 mm 1 mps 719 mmHg 62%
    19:00 +10°C° 0 mm 1 mps 719 mmHg 69%
    20:00 +10°C° 0 mm 1 mps 719 mmHg 70%
    21:00 +9°C° 0 mm 1 mps 720 mmHg 71%
    22:00 +9°C° 0 mm 1 mps 720 mmHg 72%
    23:00 +8°C° 0 mm 1 mps 720 mmHg 72%

    Tomorrow, 25 September, Tuesday

    Time Temperature Precipitation Wind Pressure Humidity
    00:00 +8°C° 0 mm 1 mps 720 mmHg 72%
    01:00 +8°C° 0 mm 1 mps 720 mmHg 72%
    02:00 +7°C° 0 mm 1 mps 720 mmHg 73%
    03:00 +7°C° 0 mm 1 mps 720 mmHg 73%
    04:00 +7°C° 0 mm 1 mps 720 mmHg 73%
    05:00 +7°C° 0 mm 1 mps 720 mmHg 71%
    06:00 +8°C° 0 mm 1 mps 720 mmHg 69%
    07:00 +9°C° 0 mm 1 mps 720 mmHg 66%
    08:00 +11°C° 0 mm 1 mps 720 mmHg 59%
    09:00 +14°C° 0 mm 1 mps 720 mmHg 51%
    10:00 +16°C° 0 mm 1 mps 720 mmHg 44%
    11:00 +17°C° 0 mm 2 mps 720 mmHg 42%
    12:00 +18°C° 0 mm 2 mps 719 mmHg 40%
    13:00 +19°C° 0 mm 2 mps 719 mmHg 39%
    14:00 +19°C° 0 mm 2 mps 719 mmHg 40%
    15:00 +19°C° 0 mm 2 mps 719 mmHg 42%
    16:00 +18°C° 0 mm 2 mps 718 mmHg 43%
    17:00 +16°C° 0 mm 2 mps 718 mmHg 49%
    18:00 +14°C° 0 mm 2 mps 718 mmHg 55%
    19:00 +12°C° 0 mm 2 mps 718 mmHg 61%
    20:00 +10°C° 0 mm 2 mps 718 mmHg 62%
    21:00 +10°C° 0 mm 2 mps 718 mmHg 63%
    22:00 +9°C° 0 mm 2 mps 718 mmHg 64%
    23:00 +9°C° 0 mm 2 mps 718 mmHg 66%

    Day after tomorrow, 26 September, Wednesday

    Time Temperature Precipitation Wind Pressure Humidity
    00:00 +9°C° 0 mm 2 mps 718 mmHg 68%
    01:00 +8°C° 0 mm 2 mps 718 mmHg 69%
    02:00 +8°C° 0 mm 2 mps 718 mmHg 71%
    03:00 +9°C° 0 mm 1 mps 718 mmHg 72%
    04:00 +8°C° 0 mm 1 mps 718 mmHg 74%
    05:00 +9°C° 0 mm 1 mps 718 mmHg 73%
    06:00 +9°C° 0 mm 1 mps 718 mmHg 72%
    07:00 +10°C° 0 mm 1 mps 718 mmHg 70%
    08:00 +12°C° 0 mm 1 mps 718 mmHg 64%
    09:00 +14°C° 0 mm 1 mps 718 mmHg 58%
    10:00 +16°C° 0 mm 1 mps 718 mmHg 51%
    11:00 +18°C° 0 mm 1 mps 717 mmHg 51%
    12:00 +19°C° 0 mm 1 mps 717 mmHg 51%
    13:00 +19°C° 0 mm 1 mps 717 mmHg 51%
    14:00 +17°C° 0.4 mm 2 mps 717 mmHg 60%
    15:00 +15°C° 0.4 mm 2 mps 716 mmHg 69%
    16:00 +12°C° 0.4 mm 3 mps 716 mmHg 78%
    17:00 +11°C° 1.2 mm 3 mps 716 mmHg 83%
    18:00 +10°C° 1.2 mm 3 mps 716 mmHg 88%
    19:00 +9°C° 1.2 mm 3 mps 716 mmHg 93%
    20:00 +8°C° 0.7 mm 3 mps 716 mmHg 93%
    21:00 +8°C° 0.7 mm 3 mps 716 mmHg 93%
    22:00 +8°C° 0.7 mm 3 mps 716 mmHg 94%
    23:00 +8°C° 0.4 mm 3 mps 716 mmHg 93%

    27 September, Thursday

    Time Temperature Precipitation Wind Pressure Humidity
    00:00 +8°C° 0.4 mm 3 mps 716 mmHg 93%
    01:00 +7°C° 0.4 mm 3 mps 716 mmHg 92%
    02:00 +7°C° 0.2 mm 3 mps 716 mmHg 92%
    03:00 +7°C° 0.2 mm 3 mps 716 mmHg 92%
    04:00 +6°C° 0.2 mm 4 mps 716 mmHg 92%
    05:00 +6°C° 0 mm 4 mps 717 mmHg 91%
    06:00 +6°C° 0 mm 4 mps 717 mmHg 89%
    07:00 +6°C° 0 mm 5 mps 718 mmHg 88%
    08:00 +6°C° 0 mm 5 mps 718 mmHg 85%
    09:00 +5°C° 0 mm 6 mps 718 mmHg 82%
    10:00 +5°C° 0 mm 6 mps 718 mmHg 79%
    11:00 +5°C° 0 mm 6 mps 719 mmHg 76%
    12:00 +5°C° 0 mm 6 mps 719 mmHg 74%
    13:00 +5°C° 0 mm 6 mps 719 mmHg 71%
    14:00 +5°C° 0 mm 6 mps 719 mmHg 71%
    15:00 +5°C° 0 mm 6 mps 719 mmHg 72%
    16:00 +6°C° 0 mm 5 mps 719 mmHg 72%
    17:00 +5°C° 0 mm 5 mps 719 mmHg 75%
    18:00 +5°C° 0 mm 5 mps 719 mmHg 78%
    19:00 +5°C° 0 mm 5 mps 719 mmHg 81%
    20:00 +5°C° 0.1 mm 5 mps 719 mmHg 83%
    21:00 +5°C° 0.1 mm 5 mps 719 mmHg 84%
    22:00 +5°C° 0.1 mm 5 mps 719 mmHg 85%
    23:00 +3°C° 0.7 mm 5 mps 718 mmHg 86%

    28 September, Friday

    Time Temperature Precipitation Wind Pressure Humidity
    00:00 +3°C° 0.7 mm 5 mps 718 mmHg 87%
    01:00 +3°C° 0.7 mm 6 mps 717 mmHg 88%
    02:00 +3°C° 1.7 mm 6 mps 717 mmHg 89%
    03:00 +3°C° 1.7 mm 6 mps 716 mmHg 89%
    04:00 +3°C° 1.7 mm 6 mps 716 mmHg 90%
    05:00 +3°C° 1.2 mm 6 mps 716 mmHg 91%
    06:00 +3°C° 1.2 mm 5 mps 716 mmHg 92%
    07:00 +4°C° 1.2 mm 4 mps 717 mmHg 92%
    08:00 +4°C° 1.1 mm 4 mps 717 mmHg 93%
    09:00 +4°C° 1.1 mm 3 mps 717 mmHg 93%
    10:00 +4°C° 1.1 mm 3 mps 718 mmHg 93%
    11:00 +5°C° 0.8 mm 3 mps 718 mmHg 92%
    12:00 +5°C° 0.8 mm 3 mps 718 mmHg 92%
    13:00 +5°C° 0.8 mm 3 mps 718 mmHg 91%
    14:00 +6°C° 0.9 mm 2 mps 719 mmHg 92%
    15:00 +6°C° 0.9 mm 2 mps 719 mmHg 92%
    16:00 +6°C° 0.9 mm 2 mps 719 mmHg 93%
    17:00 +6°C° 1 mm 2 mps 720 mmHg 94%
    18:00 +5°C° 1 mm 2 mps 720 mmHg 94%
    19:00 +5°C° 1 mm 2 mps 720 mmHg 95%
    20:00 +5°C° 0.5 mm 2 mps 721 mmHg 95%
    21:00 +5°C° 0.5 mm 2 mps 721 mmHg 96%
    22:00 +5°C° 0.5 mm 2 mps 721 mmHg 96%
    23:00 +5°C° 0.2 mm 2 mps 721 mmHg 96%

    29 September, Saturday

    Time Temperature Precipitation Wind Pressure Humidity
    00:00 +5°C° 0.2 mm 2 mps 721 mmHg 96%
    01:00 +5°C° 0.2 mm 2 mps 722 mmHg 96%
    02:00 +5°C° 0.3 mm 2 mps 722 mmHg 96%
    03:00 +5°C° 0.3 mm 2 mps 722 mmHg 96%
    04:00 +5°C° 0.3 mm 2 mps 723 mmHg 97%
    05:00 +6°C° 0.1 mm 2 mps 723 mmHg 96%
    06:00 +6°C° 0.1 mm 2 mps 724 mmHg 96%
    07:00 +6°C° 0.1 mm 2 mps 724 mmHg 96%
    08:00 +7°C° 0 mm 2 mps 724 mmHg 94%
    09:00 +7°C° 0 mm 2 mps 724 mmHg 92%
    10:00 +8°C° 0 mm 2 mps 725 mmHg 91%
    11:00 +9°C° 0 mm 2 mps 725 mmHg 89%
    12:00 +10°C° 0 mm 2 mps 725 mmHg 87%
    13:00 +11°C° 0 mm 1 mps 725 mmHg 86%
    14:00 +12°C° 0 mm 1 mps 725 mmHg 85%
    15:00 +12°C° 0 mm 1 mps 725 mmHg 85%
    16:00 +12°C° 0 mm 1 mps 725 mmHg 84%
    17:00 +11°C° 0 mm 1 mps 725 mmHg 88%
    18:00 +9°C° 0 mm 1 mps 725 mmHg 91%
    19:00 +8°C° 0 mm 1 mps 725 mmHg 95%
    20:00 +7°C° 0 mm 1 mps 725 mmHg 95%
    21:00 +7°C° 0 mm 1 mps 725 mmHg 95%
    22:00 +7°C° 0 mm 1 mps 725 mmHg 95%
    23:00 +7°C° 0 mm 1 mps 725 mmHg 96%
    Show more